Location: Dzierzno
(50.6159°N, 19.2852°E)
Time: 00:25:16
(UTC+00:00)

Cosmos 1536 Rocket - Pass Details

Date: 18 November 2025
Orbit: 599 x 625 km, 82.5° (Epoch: 04 December)

Event Time Altitude Azimuth Distance (km) Brightness Sun altitude
Rises 17:05:22 0° 347° (NNW) 2,919 7.1 -20.7°
Reaches altitude 10° 17:07:37 10° 344° (NNW) 2,005 6.3 -21.1°
Maximum altitude 17:12:00 62° 264° (W) 701 4.0 -21.8°
Drops below altitude 10° 17:16:20 10° 184° (S) 1,975 6.2 -22.4°
Sets 17:18:33 0° 181° (S) 2,871 7.0 -22.8°
